TimeCST,TemperatureF,Dew PointF,Humidity,Sea Level PressureIn,VisibilityMPH,Wind Direction,Wind SpeedMPH,Gust SpeedMPH,PrecipitationIn,Events,Conditions,WindDirDegrees,DateUTC
12:53 AM,25.0,14.0,63,30.26,10.0,ENE,3.5,-,N/A,,Clear,60,2013-02-02 06:53:00
1:53 AM,25.0,16.0,69,30.24,10.0,East,4.6,-,N/A,,Clear,100,2013-02-02 07:53:00
3:53 AM,24.1,16.0,71,30.20,10.0,SSE,5.8,-,0.01,,Clear,150,2013-02-02 09:53:00
4:53 AM,23.0,16.0,74,30.19,10.0,South,3.5,-,N/A,,Clear,170,2013-02-02 10:53:00
6:53 AM,21.9,17.1,82,30.18,10.0,Calm,Calm,-,N/A,,Partly Cloudy,0,2013-02-02 12:53:00
7:53 AM,26.1,19.0,75,30.18,10.0,Calm,Calm,-,N/A,,Scattered Clouds,0,2013-02-02 13:53:00
8:53 AM,30.0,19.0,64,30.20,10.0,West,4.6,-,N/A,,Partly Cloudy,280,2013-02-02 14:53:00
9:53 AM,37.9,21.0,51,30.19,10.0,Variable,4.6,-,N/A,,Scattered Clouds,0,2013-02-02 15:53:00
10:53 AM,39.9,23.0,51,30.22,10.0,WNW,8.1,-,N/A,,Mostly Cloudy,300,2013-02-02 16:53:00
11:53 AM,44.1,25.0,47,30.22,10.0,West,6.9,-,N/A,,Partly Cloudy,280,2013-02-02 17:53:00
12:53 PM,48.0,26.1,42,30.18,10.0,West,10.4,-,N/A,,Clear,270,2013-02-02 18:53:00
1:53 PM,51.1,26.1,38,30.16,10.0,West,9.2,16.1,N/A,,Clear,280,2013-02-02 19:53:00
2:53 PM,53.1,27.0,37,30.16,10.0,Variable,5.8,-,N/A,,Clear,0,2013-02-02 20:53:00
3:53 PM,53.1,28.0,38,30.15,10.0,WNW,9.2,-,N/A,,Clear,300,2013-02-02 21:53:00
4:53 PM,52.0,28.0,40,30.17,10.0,WNW,6.9,17.3,N/A,,Clear,290,2013-02-02 22:53:00
5:53 PM,48.9,28.9,46,30.18,10.0,NW,4.6,-,N/A,,Partly Cloudy,310,2013-02-02 23:53:00
6:53 PM,46.0,30.0,54,30.19,10.0,WSW,3.5,-,N/A,,Clear,250,2013-02-03 00:53:00
7:53 PM,45.0,28.9,53,30.19,10.0,Calm,Calm,-,N/A,,Clear,0,2013-02-03 01:53:00
8:53 PM,43.0,28.0,56,30.18,10.0,WSW,3.5,-,N/A,,Clear,240,2013-02-03 02:53:00
9:53 PM,42.1,28.0,58,30.17,10.0,SW,3.5,-,N/A,,Clear,230,2013-02-03 03:53:00
10:53 PM,42.1,28.0,58,30.16,10.0,Calm,Calm,-,N/A,,Clear,0,2013-02-03 04:53:00
11:53 PM,41.0,28.0,60,30.15,10.0,WSW,4.6,-,N/A,,Clear,240,2013-02-03 05:53:00